| time (UTC) | temp F | wind direction | speed MPH | gust MPH | rain 1hr in | rain 24hr in | rain mn in | humidity % | barometer mb |
| 20260906060738 | 60 | 218 | 1.0 | 3.0 | 0.00 | 0.06 | 0.00 | 74 | 1022.0 |
| 20260906060238 | 60 | 220 | 1.0 | 4.0 | 0.00 | 0.06 | 0.00 | 75 | 1022.1 |
| 20260906055738 | 60 | 222 | 1.0 | 4.0 | 0.00 | 0.06 | 0.00 | 75 | 1022.1 |
| 20260906055235 | 60 | 205 | 1.0 | 4.0 | 0.00 | 0.06 | 0.00 | 75 | 1022.1 |
| 20260906054736 | 60 | 206 | 0.0 | 2.0 | 0.00 | 0.06 | 0.00 | 76 | 1022.0 |
| 20260906054234 | 60 | 206 | 1.0 | 3.0 | 0.00 | 0.06 | 0.00 | 77 | 1022.1 |
| 20260906053740 | 60 | 206 | 1.0 | 4.0 | 0.00 | 0.06 | 0.00 | 76 | 1022.0 |
| 20260906053736 | 60 | 206 | 1.0 | 3.0 | 0.00 | 0.06 | 0.00 | 76 | 1022.0 |
| 20260906052735 | 60 | 206 | 1.0 | 4.0 | 0.00 | 0.06 | 0.00 | 76 | 1022.0 |
| 20260906052236 | 60 | 206 | 1.0 | 4.0 | 0.00 | 0.06 | 0.00 | 76 | 1022.0 |
| 20260906051736 | 60 | 206 | 1.0 | 4.0 | 0.00 | 0.06 | 0.00 | 76 | 1022.0 |
| 20260906051236 | 60 | 206 | 1.0 | 4.0 | 0.00 | 0.06 | 0.00 | 75 | 1022.0 |
| 20260906050734 | 60 | 210 | 1.0 | 4.0 | 0.00 | 0.06 | 0.00 | 75 | 1022.0 |
| 20260906050233 | 60 | 208 | 1.0 | 4.0 | 0.00 | 0.06 | 0.00 | 75 | 1022.0 |
| 20260906045738 | 60 | 180 | 2.0 | 5.0 | 0.00 | 0.06 | 0.00 | 74 | 1021.8 |
| 20260906045732 | 60 | 180 | 1.0 | 5.0 | 0.00 | 0.06 | 0.00 | 75 | 1021.9 |
| 20260906044733 | 60 | 185 | 2.0 | 7.0 | 0.00 | 0.06 | 0.00 | 74 | 1021.7 |
| 20260906044234 | 60 | 185 | 1.0 | 7.0 | 0.00 | 0.06 | 0.00 | 74 | 1021.8 |
| 20260906043735 | 61 | 206 | 1.0 | 4.0 | 0.00 | 0.06 | 0.00 | 75 | 1021.8 |
| 20260906043234 | 60 | 206 | 1.0 | 4.0 | 0.00 | 0.06 | 0.00 | 75 | 1021.8 |
| 20260906042750 | 60 | 206 | 2.0 | 5.0 | 0.00 | 0.06 | 0.00 | 76 | 1021.8 |
| 20260906042233 | 60 | 208 | 3.0 | 5.0 | 0.00 | 0.06 | 0.00 | 74 | 1021.8 |
| 20260906041733 | 61 | 214 | 2.0 | 5.0 | 0.00 | 0.06 | 0.00 | 73 | 1021.8 |
| 20260906041233 | 61 | 235 | 1.0 | 4.0 | 0.00 | 0.06 | 0.00 | 74 | 1021.7 |
| 20260906040733 | 61 | 236 | 1.0 | 4.0 | 0.00 | 0.06 | 0.00 | 74 | 1021.6 |
| 20260906040231 | 61 | 242 | 2.0 | 4.0 | 0.00 | 0.06 | 0.00 | 73 | 1021.6 |
| 20260906035732 | 61 | 244 | 2.0 | 5.0 | 0.00 | 0.06 | 0.00 | 73 | 1021.5 |
| 20260906035230 | 61 | 249 | 1.0 | 5.0 | 0.00 | 0.06 | 0.00 | 74 | 1021.5 |
| 20260906034728 | 61 | 254 | 1.0 | 7.0 | 0.00 | 0.06 | 0.00 | 75 | 1021.5 |
| 20260906034228 | 60 | 256 | 1.0 | 7.0 | 0.00 | 0.06 | 0.00 | 75 | 1021.6 |
| 20260906033728 | 61 | 257 | 2.0 | 5.0 | 0.00 | 0.06 | 0.00 | 75 | 1021.6 |
| 20260906033229 | 61 | 259 | 2.0 | 7.0 | 0.00 | 0.06 | 0.00 | 74 | 1021.7 |
| 20260906032726 | 61 | 208 | 2.0 | 7.0 | 0.00 | 0.06 | 0.00 | 75 | 1021.7 |
| 20260906032226 | 61 | 202 | 2.0 | 7.0 | 0.00 | 0.06 | 0.00 | 76 | 1021.7 |
| 20260906031727 | 60 | 197 | 2.0 | 7.0 | 0.00 | 0.06 | 0.00 | 76 | 1021.7 |
| 20260906031224 | 60 | 209 | 2.0 | 5.0 | 0.00 | 0.06 | 0.00 | 78 | 1021.8 |
| 20260906030726 | 60 | 210 | 2.0 | 6.0 | 0.00 | 0.06 | 0.00 | 78 | 1021.8 |
| 20260906030226 | 60 | 224 | 2.0 | 6.0 | 0.00 | 0.06 | 0.00 | 78 | 1021.9 |
| 20260906025726 | 60 | 241 | 1.0 | 5.0 | 0.00 | 0.06 | 0.00 | 78 | 1021.8 |
| 20260906025228 | 61 | 206 | 2.0 | 9.0 | 0.00 | 0.06 | 0.00 | 77 | 1021.9 |
| 20260906025222 | 60 | 241 | 2.0 | 5.0 | 0.00 | 0.06 | 0.00 | 77 | 1021.8 |
| 20260906024222 | 61 | 208 | 2.0 | 9.0 | 0.00 | 0.06 | 0.00 | 77 | 1022.0 |
| 20260906023725 | 61 | 204 | 2.0 | 7.0 | 0.00 | 0.06 | 0.00 | 77 | 1022.0 |
| 20260906023228 | 61 | 235 | 1.0 | 5.0 | 0.00 | 0.06 | 0.00 | 77 | 1022.1 |
| 20260906023222 | 61 | 233 | 1.0 | 5.0 | 0.00 | 0.06 | 0.00 | 78 | 1022.1 |
| 20260906022848 | 60 | 233 | 2.0 | 6.0 | 0.00 | 0.06 | 0.00 | 76 | 1022.3 |
| 20260906022224 | 60 | 231 | 1.0 | 6.0 | 0.00 | 0.06 | 0.00 | 78 | 1022.2 |
| 20260906021224 | 60 | 234 | 2.0 | 7.0 | 0.00 | 0.06 | 0.00 | 77 | 1022.3 |
| 20260906020723 | 60 | 238 | 2.0 | 7.0 | 0.00 | 0.06 | 0.00 | 78 | 1022.3 |
| 20260906020222 | 60 | 238 | 2.0 | 5.0 | 0.00 | 0.06 | 0.00 | 79 | 1022.3 |
| 20260906015722 | 60 | 195 | 2.0 | 6.0 | 0.00 | 0.06 | 0.00 | 78 | 1022.3 |
| 20260906015223 | 60 | 209 | 2.0 | 7.0 | 0.00 | 0.06 | 0.00 | 78 | 1022.3 |
| 20260906014730 | 61 | 216 | 1.0 | 6.0 | 0.00 | 0.06 | 0.00 | 78 | 1022.4 |
| 20260906014724 | 61 | 242 | 2.0 | 7.0 | 0.00 | 0.06 | 0.00 | 78 | 1022.3 |
| 20260906013723 | 61 | 249 | 1.0 | 5.0 | 0.00 | 0.06 | 0.00 | 79 | 1022.3 |
| 20260906013222 | 61 | 229 | 1.0 | 6.0 | 0.00 | 0.06 | 0.00 | 79 | 1022.3 |
| 20260906012724 | 61 | 231 | 2.0 | 8.0 | 0.00 | 0.06 | 0.00 | 80 | 1022.4 |
| 20260906012225 | 60 | 254 | 2.0 | 8.0 | 0.00 | 0.06 | 0.00 | 79 | 1022.4 |
| 20260906011724 | 60 | 283 | 1.0 | 7.0 | 0.00 | 0.06 | 0.00 | 80 | 1022.3 |
| 20260906011220 | 60 | 285 | 2.0 | 7.0 | 0.00 | 0.06 | 0.00 | 80 | 1022.3 |
| 20260906010720 | 60 | 239 | 2.0 | 6.0 | 0.00 | 0.06 | 0.00 | 81 | 1022.3 |
| 20260906010220 | 60 | 262 | 2.0 | 7.0 | 0.00 | 0.06 | 0.00 | 81 | 1022.2 |
| 20260906005721 | 60 | 281 | 2.0 | 7.0 | 0.00 | 0.06 | 0.00 | 80 | 1022.3 |
| 20260906005220 | 60 | 251 | 2.0 | 7.0 | 0.00 | 0.06 | 0.00 | 80 | 1022.3 |
| 20260906004727 | 60 | 239 | 1.0 | 5.0 | 0.00 | 0.06 | 0.00 | 81 | 1022.3 |
| 20260906004720 | 60 | 267 | 1.0 | 6.0 | 0.00 | 0.06 | 0.00 | 79 | 1022.3 |
| 20260906003721 | 59 | 266 | 1.0 | 4.0 | 0.00 | 0.06 | 0.00 | 81 | 1022.2 |
| 20260906003223 | 59 | 270 | 1.0 | 4.0 | 0.00 | 0.06 | 0.00 | 82 | 1022.2 |
| 20260906002721 | 59 | 281 | 1.0 | 6.0 | 0.00 | 0.06 | 0.00 | 82 | 1022.1 |
| 20260906002220 | 59 | 275 | 1.0 | 6.0 | 0.00 | 0.06 | 0.00 | 82 | 1022.1 |
| 20260906001720 | 58 | 213 | 1.0 | 6.0 | 0.00 | 0.06 | 0.00 | 83 | 1022.1 |
| 20260906001220 | 58 | 266 | 2.0 | 6.0 | 0.00 | 0.06 | 0.00 | 83 | 1022.0 |
| 20260906000720 | 58 | 262 | 1.0 | 8.0 | 0.00 | 0.06 | 0.00 | 84 | 1021.9 |
| 20260906000226 | 58 | 253 | 1.0 | 8.0 | 0.00 | 0.06 | 0.00 | 84 | 1021.8 |
| 20260905235726 | 58 | 268 | 1.0 | 6.0 | 0.00 | 0.06 | 0.00 | 84 | 1021.8 |
| 20260905235720 | 58 | 255 | 1.0 | 6.0 | 0.00 | 0.06 | 0.00 | 84 | 1021.9 |
| 20260905234721 | 58 | 235 | 1.0 | 5.0 | 0.00 | 0.06 | 0.00 | 85 | 1021.8 |
| 20260905234217 | 57 | 281 | 0.0 | 4.0 | 0.00 | 0.06 | 0.00 | 85 | 1021.8 |
| 20260905233722 | 57 | 208 | 0.0 | 9.0 | 0.00 | 0.06 | 0.00 | 85 | 1021.6 |
| 20260905233717 | 57 | 222 | 0.0 | 9.0 | 0.00 | 0.06 | 0.00 | 85 | 1021.7 |
| 20260905232717 | 57 | 242 | 1.0 | 7.0 | 0.00 | 0.06 | 0.00 | 86 | 1021.6 |
| 20260905232222 | 57 | 250 | 0.0 | 5.0 | 0.00 | 0.06 | 0.00 | 86 | 1021.5 |
| 20260905232216 | 57 | 242 | 1.0 | 7.0 | 0.00 | 0.06 | 0.00 | 86 | 1021.6 |
| 20260905231215 | 56 | 235 | 1.0 | 6.0 | 0.00 | 0.06 | 0.00 | 86 | 1021.4 |
| 20260905230714 | 56 | 266 | 1.0 | 6.0 | 0.00 | 0.06 | 0.00 | 86 | 1021.3 |
| 20260905230221 | 56 | 262 | 1.0 | 13.0 | 0.00 | 0.06 | 0.00 | 86 | 1021.1 |
| 20260905230216 | 56 | 310 | 0.0 | 4.0 | 0.00 | 0.06 | 0.00 | 86 | 1021.3 |
| 20260905225840 | 56 | 239 | 1.0 | 13.0 | 0.00 | 0.06 | 0.00 | 87 | 1021.0 |
| 20260905224716 | 56 | 299 | 1.0 | 8.0 | 0.00 | 0.06 | 0.00 | 86 | 1021.0 |
| 20260905224214 | 56 | 258 | 0.0 | 7.0 | 0.00 | 0.06 | 0.00 | 86 | 1021.0 |
| 20260905223715 | 56 | 260 | 0.0 | 3.0 | 0.00 | 0.06 | 0.00 | 87 | 1020.9 |
| 20260905223219 | 56 | 257 | 1.0 | 5.0 | 0.00 | 0.06 | 0.00 | 87 | 1020.8 |
| 20260905223215 | 56 | 256 | 1.0 | 4.0 | 0.00 | 0.06 | 0.00 | 87 | 1020.8 |
| 20260905222215 | 56 | 264 | 1.0 | 5.0 | 0.00 | 0.06 | 0.00 | 87 | 1020.5 |
| 20260905221711 | 55 | 229 | 1.0 | 4.0 | 0.00 | 0.06 | 0.00 | 87 | 1020.4 |
| 20260905221212 | 55 | 260 | 0.0 | 4.0 | 0.00 | 0.06 | 0.00 | 87 | 1020.4 |
| 20260905220711 | 55 | 260 | 0.0 | 4.0 | 0.00 | 0.06 | 0.00 | 87 | 1020.4 |
| 20260905220211 | 55 | 156 | 0.0 | 3.0 | 0.00 | 0.06 | 0.00 | 87 | 1020.4 |
| 20260905215711 | 55 | 270 | 0.0 | 3.0 | 0.00 | 0.06 | 0.00 | 87 | 1020.3 |
| 20260905215212 | 55 | 272 | 0.0 | 3.0 | 0.00 | 0.06 | 0.00 | 87 | 1020.3 |
| 20260905214718 | 55 | 270 | 0.0 | 4.0 | 0.00 | 0.06 | 0.00 | 87 | 1020.2 |
| 20260905214713 | 55 | 272 | 0.0 | 4.0 | 0.00 | 0.06 | 0.00 | 87 | 1020.3 |
| 20260905214340 | 55 | 224 | 0.0 | 9.0 | 0.00 | 0.06 | 0.00 | 87 | 1020.2 |
| 20260905213213 | 55 | 104 | 1.0 | 9.0 | 0.00 | 0.07 | 0.00 | 87 | 1020.2 |
| 20260905212716 | 55 | 241 | 0.0 | 4.0 | 0.00 | 0.07 | 0.00 | 87 | 1019.9 |
| 20260905212710 | 55 | 189 | 0.0 | 6.0 | 0.00 | 0.07 | 0.00 | 87 | 1020.1 |
| 20260905212336 | 55 | 239 | 0.0 | 9.0 | 0.00 | 0.07 | 0.00 | 87 | 1019.8 |
| 20260905211210 | 55 | 239 | 0.0 | 9.0 | 0.00 | 0.07 | 0.00 | 87 | 1019.8 |
| 20260905210709 | 55 | 254 | 0.0 | 2.0 | 0.00 | 0.08 | 0.00 | 87 | 1019.8 |
| 20260905210211 | 55 | 254 | 0.0 | 5.0 | 0.00 | 0.08 | 0.00 | 87 | 1019.7 |
| 20260905205710 | 55 | 258 | 1.0 | 7.0 | 0.00 | 0.08 | 0.00 | 87 | 1019.6 |
| 20260905205211 | 55 | 358 | 1.0 | 7.0 | 0.00 | 0.09 | 0.00 | 87 | 1019.5 |
| 20260905204710 | 55 | 276 | 0.0 | 4.0 | 0.00 | 0.09 | 0.00 | 87 | 1019.5 |
| 20260905204212 | 55 | 250 | 0.0 | 4.0 | 0.00 | 0.09 | 0.00 | 87 | 1019.4 |
| 20260905203707 | 55 | 232 | 0.0 | 2.0 | 0.00 | 0.09 | 0.00 | 87 | 1019.2 |
| 20260905203210 | 55 | 237 | 0.0 | 5.0 | 0.00 | 0.09 | 0.00 | 87 | 1019.1 |
| 20260905202708 | 55 | 231 | 0.0 | 5.0 | 0.00 | 0.10 | 0.00 | 87 | 1019.1 |
| 20260905202209 | 55 | 250 | 0.0 | 3.0 | 0.00 | 0.11 | 0.00 | 87 | 1019.0 |
| 20260905201714 | 55 | 245 | 1.0 | 4.0 | 0.00 | 0.11 | 0.00 | 87 | 1018.9 |
| 20260905201709 | 55 | 306 | 0.0 | 3.0 | 0.00 | 0.11 | 0.00 | 87 | 1018.9 |
| 20260905201205 | 55 | 307 | 0.0 | 4.0 | 0.00 | 0.11 | 0.00 | 87 | 1018.9 |
| 20260905200211 | 55 | 306 | 0.0 | 5.0 | 0.00 | 0.11 | 0.00 | 87 | 1018.7 |
| 20260905200209 | 55 | 260 | 1.0 | 5.0 | 0.00 | 0.11 | 0.00 | 87 | 1018.8 |
| 20260905195831 | 55 | 271 | 0.0 | 4.0 | 0.00 | 0.11 | 0.00 | 87 | 1018.5 |
| 20260905194707 | 55 | 262 | 1.0 | 9.0 | 0.00 | 0.11 | 0.00 | 87 | 1018.5 |
| 20260905194205 | 55 | 283 | 1.0 | 9.0 | 0.00 | 0.11 | 0.00 | 87 | 1018.5 |
| 20260905193707 | 55 | 219 | 1.0 | 10.0 | 0.00 | 0.11 | 0.00 | 87 | 1018.5 |
| 20260905193211 | 55 | 264 | 1.0 | 8.0 | 0.00 | 0.11 | 0.00 | 87 | 1018.5 |
| 20260905193206 | 55 | 229 | 1.0 | 10.0 | 0.00 | 0.11 | 0.00 | 87 | 1018.5 |
| 20260905192205 | 55 | 255 | 1.0 | 8.0 | 0.00 | 0.11 | 0.00 | 87 | 1018.3 |
| 20260905191704 | 55 | 236 | 1.0 | 8.0 | 0.00 | 0.11 | 0.00 | 87 | 1018.3 |
| 20260905191203 | 55 | 289 | 1.0 | 9.0 | 0.00 | 0.11 | 0.00 | 86 | 1018.2 |
| 20260905190705 | 55 | 254 | 1.0 | 9.0 | 0.00 | 0.11 | 0.00 | 86 | 1018.1 |
| 20260905190204 | 55 | 237 | 1.0 | 8.0 | 0.00 | 0.11 | 0.00 | 86 | 1018.1 |
| 20260905185703 | 55 | 266 | 1.0 | 9.0 | 0.00 | 0.11 | 0.00 | 86 | 1018.1 |
| 20260905185209 | 55 | 193 | 1.0 | 9.0 | 0.00 | 0.11 | 0.00 | 86 | 1017.9 |
| 20260905185204 | 55 | 258 | 1.0 | 9.0 | 0.00 | 0.11 | 0.00 | 86 | 1018.0 |
| 20260905184203 | 55 | 253 | 1.0 | 9.0 | 0.00 | 0.11 | 0.00 | 86 | 1017.8 |
| 20260905183705 | 55 | 256 | 1.0 | 7.0 | 0.00 | 0.11 | 0.00 | 85 | 1017.7 |
| 20260905183203 | 55 | 268 | 1.0 | 7.0 | 0.00 | 0.12 | 0.00 | 85 | 1017.6 |
| 20260905182709 | 55 | 239 | 1.0 | 10.0 | 0.00 | 0.12 | 0.00 | 85 | 1017.6 |
| 20260905182703 | 55 | 231 | 1.0 | 10.0 | 0.00 | 0.12 | 0.00 | 85 | 1017.7 |
| 20260905181705 | 56 | 214 | 1.0 | 8.0 | 0.00 | 0.13 | 0.00 | 85 | 1017.5 |
| 20260905181203 | 56 | 251 | 1.0 | 7.0 | 0.00 | 0.15 | 0.00 | 85 | 1017.3 |
| 20260905180704 | 56 | 254 | 1.0 | 7.0 | 0.00 | 0.18 | 0.00 | 85 | 1017.3 |
| 20260905180209 | 56 | 261 | 1.0 | 12.0 | 0.00 | 0.18 | 0.00 | 85 | 1017.0 |
| 20260905180203 | 56 | 237 | 1.0 | 12.0 | 0.00 | 0.18 | 0.00 | 85 | 1017.2 |
| 20260905175203 | 56 | 280 | 1.0 | 7.0 | 0.00 | 0.18 | 0.00 | 85 | 1016.8 |
| 20260905174704 | 56 | 248 | 1.0 | 7.0 | 0.00 | 0.18 | 0.00 | 85 | 1016.6 |
| 20260905174204 | 56 | 271 | 1.0 | 8.0 | 0.00 | 0.18 | 0.00 | 85 | 1016.7 |
| 20260905173703 | 56 | 267 | 1.0 | 8.0 | 0.00 | 0.18 | 0.00 | 85 | 1016.6 |
| 20260905173202 | 56 | 224 | 1.0 | 10.0 | 0.00 | 0.18 | 0.00 | 85 | 1016.6 |
| 20260905172700 | 56 | 222 | 1.0 | 10.0 | 0.00 | 0.18 | 0.00 | 85 | 1016.5 |
| 20260905172202 | 56 | 211 | 1.0 | 10.0 | 0.00 | 0.18 | 0.00 | 85 | 1016.3 |
| 20260905171700 | 56 | 254 | 2.0 | 12.0 | 0.00 | 0.18 | 0.00 | 85 | 1016.2 |
| 20260905171202 | 55 | 226 | 1.0 | 12.0 | 0.00 | 0.18 | 0.00 | 85 | 1016.1 |
| 20260905170706 | 55 | 347 | 1.0 | 8.0 | 0.00 | 0.18 | 0.00 | 85 | 1016.0 |
| 20260905170700 | 56 | 262 | 0.0 | 7.0 | 0.00 | 0.18 | 0.00 | 85 | 1016.1 |
| 20260905165700 | 55 | 49 | 1.0 | 12.0 | 0.00 | 0.19 | 0.00 | 85 | 1015.8 |
| 20260905165201 | 55 | 239 | 1.0 | 12.0 | 0.00 | 0.19 | 0.00 | 85 | 1015.8 |
| 20260905164658 | 55 | 221 | 1.0 | 7.0 | 0.00 | 0.19 | 0.00 | 85 | 1015.8 |
| 20260905164203 | 55 | 254 | 1.0 | 14.0 | 0.00 | 0.19 | 0.00 | 86 | 1015.9 |
| 20260905164159 | 55 | 241 | 1.0 | 14.0 | 0.00 | 0.19 | 0.00 | 85 | 1015.9 |
| 20260905163826 | 55 | 251 | 2.0 | 12.0 | 0.00 | 0.19 | 0.00 | 86 | 1015.7 |
| 20260905162702 | 55 | 224 | 0.0 | 6.0 | 0.00 | 0.19 | 0.00 | 85 | 1015.5 |
| 20260905162656 | 55 | 263 | 1.0 | 9.0 | 0.00 | 0.19 | 0.00 | 86 | 1015.6 |
| 20260905161659 | 55 | 249 | 1.0 | 10.0 | 0.00 | 0.20 | 0.00 | 85 | 1015.5 |
| 20260905161157 | 55 | 248 | 1.0 | 10.0 | 0.00 | 0.20 | 0.00 | 85 | 1015.6 |
| 20260905160658 | 55 | 224 | 1.0 | 8.0 | 0.00 | 0.20 | 0.00 | 85 | 1015.6 |
| 20260905160158 | 55 | 205 | 1.0 | 8.0 | 0.00 | 0.20 | 0.00 | 85 | 1015.6 |
| 20260905155704 | 55 | 245 | 1.0 | 10.0 | 0.00 | 0.20 | 0.00 | 85 | 1015.3 |
| 20260905155658 | 55 | 276 | 1.0 | 10.0 | 0.00 | 0.20 | 0.00 | 85 | 1015.4 |
| 20260905154656 | 55 | 226 | 1.0 | 11.0 | 0.00 | 0.21 | 0.00 | 85 | 1015.2 |
| 20260905154204 | 56 | 244 | 2.0 | 13.0 | 0.00 | 0.21 | 0.00 | 85 | 1015.0 |
| 20260905154154 | 56 | 220 | 1.0 | 11.0 | 0.00 | 0.21 | 0.00 | 85 | 1015.1 |
| 20260905153657 | 56 | 246 | 1.0 | 9.0 | 0.00 | 0.21 | 0.00 | 85 | 1015.0 |
| 20260905152701 | 56 | 289 | 2.0 | 11.0 | 0.00 | 0.21 | 0.00 | 84 | 1014.8 |
| 20260905152655 | 56 | 218 | 2.0 | 13.0 | 0.00 | 0.21 | 0.00 | 84 | 1014.9 |
| 20260905151657 | 56 | 104 | 2.0 | 11.0 | 0.00 | 0.21 | 0.00 | 85 | 1014.8 |
| 20260905151155 | 56 | 289 | 1.0 | 11.0 | 0.00 | 0.21 | 0.00 | 85 | 1014.6 |
| 20260905150654 | 56 | 256 | 1.0 | 8.0 | 0.00 | 0.21 | 0.00 | 85 | 1014.5 |
| 20260905150154 | 56 | 10 | 1.0 | 7.0 | 0.00 | 0.21 | 0.00 | 85 | 1014.3 |
| 20260905145656 | 56 | 317 | 1.0 | 10.0 | 0.00 | 0.21 | 0.00 | 85 | 1014.1 |
| 20260905145153 | 56 | 193 | 1.0 | 10.0 | 0.00 | 0.21 | 0.00 | 85 | 1014.1 |
| 20260905144653 | 55 | 269 | 1.0 | 8.0 | 0.00 | 0.21 | 0.00 | 85 | 1013.8 |
| 20260905144159 | 56 | 258 | 1.0 | 8.0 | 0.00 | 0.21 | 0.00 | 85 | 1013.6 |
| 20260905144153 | 56 | 239 | 1.0 | 8.0 | 0.00 | 0.21 | 0.00 | 85 | 1013.7 |
| 20260905143152 | 55 | 256 | 1.0 | 10.0 | 0.00 | 0.21 | 0.00 | 85 | 1013.7 |
| 20260905142658 | 55 | 219 | 1.0 | 8.0 | 0.00 | 0.21 | 0.00 | 85 | 1013.4 |
| 20260905142653 | 55 | 227 | 1.0 | 10.0 | 0.00 | 0.21 | 0.00 | 85 | 1013.6 |
| 20260905141654 | 55 | 241 | 1.0 | 8.0 | 0.00 | 0.21 | 0.00 | 85 | 1013.4 |
| 20260905141154 | 55 | 208 | 1.0 | 4.0 | 0.00 | 0.22 | 0.00 | 85 | 1013.3 |
| 20260905140652 | 55 | 269 | 1.0 | 6.0 | 0.00 | 0.22 | 0.00 | 85 | 1013.2 |
| 20260905140154 | 55 | 226 | 1.0 | 6.0 | 0.00 | 0.24 | 0.00 | 85 | 1013.1 |
| 20260905140149 | 55 | 319 | 1.0 | 11.0 | 0.00 | 0.26 | 0.26 | 85 | 1013.1 |
| 20260905135149 | 55 | 276 | 2.0 | 12.0 | 0.00 | 0.26 | 0.26 | 85 | 1013.0 |
| 20260905134653 | 55 | 320 | 2.0 | 13.0 | 0.00 | 0.26 | 0.26 | 85 | 1012.9 |
| 20260905134649 | 55 | 301 | 1.0 | 12.0 | 0.00 | 0.26 | 0.26 | 85 | 1012.9 |
| 20260905133648 | 55 | 283 | 2.0 | 13.0 | 0.00 | 0.26 | 0.26 | 85 | 1012.8 |
| 20260905133147 | 55 | 308 | 1.0 | 11.0 | 0.00 | 0.26 | 0.26 | 85 | 1012.6 |
| 20260905132653 | 55 | 314 | 1.0 | 9.0 | 0.00 | 0.26 | 0.26 | 84 | 1012.6 |
| 20260905132648 | 55 | 283 | 1.0 | 9.0 | 0.00 | 0.26 | 0.26 | 84 | 1012.5 |
| 20260905131649 | 55 | 301 | 1.0 | 8.0 | 0.00 | 0.26 | 0.26 | 83 | 1012.5 |
| 20260905131148 | 55 | 332 | 2.0 | 10.0 | 0.00 | 0.26 | 0.26 | 83 | 1012.4 |
| 20260905130649 | 55 | 294 | 2.0 | 10.0 | 0.00 | 0.26 | 0.26 | 83 | 1012.3 |
| 20260905130148 | 55 | 303 | 2.0 | 9.0 | 0.00 | 0.26 | 0.26 | 82 | 1012.2 |
| 20260905125651 | 56 | 303 | 2.0 | 12.0 | 0.00 | 0.26 | 0.26 | 82 | 1012.2 |
| 20260905125148 | 56 | 287 | 3.0 | 14.0 | 0.00 | 0.26 | 0.26 | 81 | 1012.1 |
| 20260905124646 | 56 | 283 | 3.0 | 14.0 | 0.00 | 0.26 | 0.26 | 80 | 1012.0 |
| 20260905124146 | 55 | 293 | 3.0 | 12.0 | 0.00 | 0.26 | 0.26 | 79 | 1012.0 |
| 20260905123647 | 56 | 307 | 4.0 | 12.0 | 0.00 | 0.26 | 0.26 | 79 | 1011.7 |
| 20260905123147 | 56 | 307 | 4.0 | 13.0 | 0.00 | 0.26 | 0.26 | 78 | 1011.7 |
| 20260905122646 | 56 | 310 | 3.0 | 13.0 | 0.00 | 0.26 | 0.26 | 77 | 1011.7 |
| 20260905122153 | 56 | 299 | 4.0 | 11.0 | 0.00 | 0.26 | 0.26 | 77 | 1011.5 |
| 20260905122148 | 56 | 291 | 3.0 | 13.0 | 0.00 | 0.26 | 0.26 | 77 | 1011.5 |
| 20260905121146 | 56 | 294 | 4.0 | 11.0 | 0.00 | 0.27 | 0.26 | 77 | 1011.4 |
| 20260905120646 | 56 | 316 | 4.0 | 13.0 | 0.00 | 0.27 | 0.26 | 77 | 1011.3 |
| 20260905120146 | 56 | 316 | 4.0 | 13.0 | 0.00 | 0.27 | 0.26 | 77 | 1011.3 |
| 20260905115646 | 56 | 334 | 3.0 | 9.0 | 0.00 | 0.27 | 0.26 | 77 | 1011.2 |
| 20260905115317 | 56 | 334 | 4.0 | 13.0 | 0.00 | 0.28 | 0.26 | 78 | 1011.0 |
| 20260905115146 | 56 | 285 | 4.0 | 11.0 | 0.00 | 0.28 | 0.26 | 77 | 1011.2 |
| 20260905113647 | 56 | 304 | 3.0 | 13.0 | 0.00 | 0.28 | 0.26 | 78 | 1010.9 |
| 20260905113145 | 56 | 288 | 3.0 | 10.0 | 0.00 | 0.28 | 0.26 | 78 | 1011.0 |
| 20260905112644 | 56 | 298 | 3.0 | 14.0 | 0.00 | 0.28 | 0.26 | 78 | 1010.9 |
| 20260905112143 | 56 | 301 | 4.0 | 15.0 | 0.00 | 0.28 | 0.26 | 77 | 1010.7 |
| 20260905111645 | 56 | 290 | 4.0 | 15.0 | 0.00 | 0.28 | 0.26 | 76 | 1010.7 |
| 20260905111151 | 56 | 332 | 3.0 | 11.0 | 0.00 | 0.28 | 0.26 | 74 | 1010.6 |
| 20260905111145 | 56 | 332 | 4.0 | 13.0 | 0.00 | 0.28 | 0.26 | 75 | 1010.6 |
| 20260905110144 | 56 | 311 | 3.0 | 14.0 | 0.00 | 0.28 | 0.26 | 74 | 1010.6 |
| 20260905105645 | 56 | 302 | 4.0 | 14.0 | 0.00 | 0.28 | 0.26 | 74 | 1010.4 |
| 20260905105144 | 56 | 256 | 3.0 | 18.0 | 0.00 | 0.28 | 0.26 | 74 | 1010.3 |
| 20260905104645 | 56 | 310 | 3.0 | 18.0 | 0.00 | 0.28 | 0.26 | 74 | 1010.1 |
| 20260905104141 | 56 | 329 | 4.0 | 15.0 | 0.00 | 0.28 | 0.26 | 74 | 1010.0 |
| 20260905103643 | 56 | 305 | 5.0 | 15.0 | 0.00 | 0.28 | 0.26 | 74 | 1009.8 |
| 20260905103141 | 56 | 306 | 4.0 | 16.0 | 0.00 | 0.28 | 0.26 | 74 | 1009.8 |
| 20260905102649 | 56 | 358 | 3.0 | 14.0 | 0.00 | 0.28 | 0.26 | 74 | 1009.6 |
| 20260905102643 | 56 | 271 | 4.0 | 16.0 | 0.00 | 0.28 | 0.26 | 74 | 1009.6 |
| 20260905101641 | 56 | 271 | 3.0 | 14.0 | 0.00 | 0.28 | 0.26 | 74 | 1009.5 |
| 20260905101141 | 56 | 342 | 4.0 | 11.0 | 0.00 | 0.28 | 0.26 | 74 | 1009.5 |
| 20260905100645 | 56 | 293 | 5.0 | 13.0 | 0.00 | 0.28 | 0.26 | 73 | 1009.3 |
| 20260905100640 | 56 | 306 | 4.0 | 11.0 | 0.00 | 0.28 | 0.26 | 73 | 1009.4 |
| 20260905095640 | 56 | 316 | 6.0 | 13.0 | 0.00 | 0.28 | 0.26 | 73 | 1009.2 |
| 20260905095137 | 56 | 306 | 4.0 | 13.0 | 0.00 | 0.28 | 0.26 | 73 | 1009.1 |
| 20260905094640 | 56 | 324 | 4.0 | 17.0 | 0.00 | 0.28 | 0.26 | 74 | 1008.9 |
| 20260905094140 | 56 | 296 | 5.0 | 17.0 | 0.00 | 0.28 | 0.26 | 73 | 1008.7 |
| 20260905094136 | 56 | 318 | 4.0 | 15.0 | 0.00 | 0.28 | 0.26 | 73 | 1008.6 |
| 20260905093137 | 56 | 291 | 3.0 | 11.0 | 0.00 | 0.28 | 0.26 | 74 | 1008.6 |
| 20260905092636 | 56 | 312 | 4.0 | 14.0 | 0.00 | 0.28 | 0.26 | 74 | 1008.5 |
| 20260905092134 | 56 | 298 | 3.0 | 14.0 | 0.00 | 0.28 | 0.26 | 76 | 1008.6 |
| 20260905091635 | 56 | 310 | 3.0 | 14.0 | 0.00 | 0.28 | 0.26 | 77 | 1008.5 |
| 20260905091134 | 56 | 310 | 3.0 | 14.0 | 0.00 | 0.28 | 0.26 | 78 | 1008.3 |
| 20260905090634 | 56 | 295 | 4.0 | 12.0 | 0.00 | 0.28 | 0.26 | 78 | 1008.1 |
| 20260905090134 | 56 | 307 | 4.0 | 9.0 | 0.00 | 0.28 | 0.26 | 79 | 1008.0 |
| 20260905085633 | 56 | 303 | 4.0 | 10.0 | 0.00 | 0.28 | 0.26 | 80 | 1007.9 |
| 20260905085135 | 55 | 307 | 3.0 | 10.0 | 0.00 | 0.28 | 0.26 | 81 | 1007.9 |
| 20260905084640 | 55 | 295 | 0.0 | 4.0 | 0.00 | 0.28 | 0.26 | 82 | 1007.7 |
| 20260905084634 | 55 | 309 | 1.0 | 8.0 | 0.00 | 0.28 | 0.26 | 82 | 1007.9 |
| 20260905083633 | 55 | 291 | 0.0 | 7.0 | 0.00 | 0.28 | 0.26 | 82 | 1007.6 |
| 20260905083131 | 55 | 306 | 0.0 | 7.0 | 0.01 | 0.28 | 0.26 | 82 | 1007.4 |
| 20260905082633 | 55 | 339 | 1.0 | 7.0 | 0.01 | 0.28 | 0.26 | 82 | 1007.4 |
| 20260905082131 | 55 | 270 | 1.0 | 7.0 | 0.01 | 0.28 | 0.26 | 82 | 1007.2 |
| 20260905081629 | 55 | 313 | 1.0 | 8.0 | 0.01 | 0.28 | 0.26 | 82 | 1007.1 |
| 20260905081129 | 55 | 312 | 1.0 | 8.0 | 0.01 | 0.28 | 0.26 | 83 | 1006.9 |
| 20260905080630 | 55 | 297 | 1.0 | 7.0 | 0.01 | 0.28 | 0.26 | 83 | 1006.9 |
| 20260905080129 | 55 | 286 | 2.0 | 10.0 | 0.01 | 0.28 | 0.26 | 84 | 1006.9 |
| 20260905075630 | 55 | 292 | 3.0 | 10.0 | 0.01 | 0.28 | 0.26 | 84 | 1006.8 |
| 20260905075129 | 55 | 304 | 2.0 | 9.0 | 0.02 | 0.28 | 0.26 | 85 | 1006.7 |
| 20260905074636 | 55 | 314 | 4.0 | 13.0 | 0.06 | 0.28 | 0.26 | 85 | 1006.5 |
| 20260905074630 | 55 | 287 | 2.0 | 11.0 | 0.05 | 0.28 | 0.26 | 85 | 1006.6 |
| 20260905073635 | 55 | 290 | 2.0 | 11.0 | 0.06 | 0.28 | 0.25 | 86 | 1006.6 |
| 20260905073629 | 55 | 306 | 3.0 | 13.0 | 0.06 | 0.28 | 0.26 | 86 | 1006.6 |
| 20260905073255 | 56 | 263 | 1.0 | 15.0 | 0.06 | 0.28 | 0.25 | 87 | 1006.7 |
| 20260905072134 | 56 | 237 | 1.0 | 7.0 | 0.06 | 0.28 | 0.25 | 86 | 1006.4 |
| 20260905072130 | 56 | 339 | 1.0 | 15.0 | 0.06 | 0.28 | 0.25 | 87 | 1006.6 |
| 20260905071129 | 56 | 218 | 1.0 | 7.0 | 0.06 | 0.28 | 0.25 | 85 | 1006.1 |
| 20260905070635 | 56 | 241 | 3.0 | 15.0 | 0.06 | 0.28 | 0.25 | 82 | 1005.7 |
| 20260905070628 | 56 | 268 | 2.0 | 9.0 | 0.06 | 0.28 | 0.25 | 84 | 1005.9 |
| 20260905065633 | 58 | 237 | 6.0 | 14.0 | 0.04 | 0.26 | 0.24 | 78 | 1006.1 |
| 20260905065627 | 57 | 175 | 5.0 | 15.0 | 0.06 | 0.28 | 0.25 | 81 | 1005.7 |
| 20260905064633 | 62 | 206 | 7.0 | 24.0 | 0.00 | 0.22 | 0.20 | 62 | 1005.5 |
| 20260905064627 | 60 | 198 | 6.0 | 15.0 | 0.02 | 0.24 | 0.22 | 70 | 1005.8 |
| 20260905063627 | 64 | 268 | 8.0 | 24.0 | 0.00 | 0.22 | 0.20 | 56 | 1005.0 |
| 20260905063133 | 65 | 315 | 5.0 | 14.0 | 0.00 | 0.22 | 0.20 | 57 | 1004.6 |
| 20260905063128 | 64 | 320 | 6.0 | 18.0 | 0.00 | 0.22 | 0.20 | 55 | 1004.7 |
| 20260905062129 | 65 | 312 | 5.0 | 12.0 | 0.00 | 0.22 | 0.20 | 56 | 1004.6 |
| 20260905061626 | 65 | 293 | 5.0 | 11.0 | 0.00 | 0.22 | 0.20 | 55 | 1004.6 |